Theta_e
325 325 327 336 334 331 337 336 332 334 327 326 325 323 322 322 321 321 330 331 332 334 335 329 327 326 324 322 319 319 317 316 316 315 315 315 316 319 321 317 319 319 319 320 321 317 310 306 308
326 324 331 336 336 337 335 333 333 328 327 325 323 322 322 323 327 329 330 327 329 327 328 328 326 325 324 323 321 320 318 318 316 315 321 323 320 322 318 316 318 318 321 324 324 322 318 311 307
325 326 333 334 332 335 334 332 331 331 330 324 323 323 322 323 325 326 326 327 326 323 321 322 325 325 324 322 321 319 318 316 315 320 326 327 327 326 320 320 318 317 318 320 327 326 323 321 312
325 331 334 331 332 330 332 329 330 328 331 325 324 324 324 324 324 324 324 326 324 321 320 323 325 325 324 321 319 318 317 316 316 323 322 323 322 323 321 322 321 321 327 326 326 327 326 323 322
332 333 330 330 330 329 328 329 329 328 326 323 325 324 324 324 324 324 324 323 319 317 318 322 324 324 322 321 320 319 319 319 319 323 320 318 320 319 321 321 321 320 323 326 327 326 326 327 325
331 327 327 328 328 328 327 330 328 327 328 325 325 324 324 325 324 324 323 320 318 319 320 322 322 322 322 320 321 321 320 320 322 324 324 323 321 322 324 321 320 324 325 324 325 325 325 325 326
328 325 329 328 331 329 328 330 327 326 327 324 325 322 325 325 324 324 322 319 320 322 321 321 322 322 321 321 322 321 322 320 324 325 324 325 324 323 322 321 320 323 324 324 324 324 323 325 325
329 325 329 327 329 328 328 327 329 328 327 327 325 325 325 326 324 324 320 321 321 321 322 322 322 322 322 322 322 322 318 323 326 325 325 325 325 323 323 321 318 318 324 327 324 323 323 323 324
330 327 328 328 328 328 327 326 329 328 326 326 326 326 326 326 324 322 321 322 321 322 322 322 322 322 322 322 322 317 318 322 326 326 326 325 324 325 322 320 317 317 320 323 323 323 324 322 323
328 326 328 328 326 326 327 326 327 325 326 325 326 326 325 326 324 322 323 323 322 322 323 322 322 322 323 322 321 318 321 323 326 326 325 325 326 323 322 320 320 320 323 323 324 326 323 325 323
327 328 327 328 330 329 327 327 328 326 322 326 326 326 325 325 324 324 325 324 321 322 322 322 322 322 322 323 318 320 323 322 321 323 324 325 326 324 323 321 321 322 322 321 322 324 324 322 324
328 327 329 328 329 329 327 328 327 327 327 328 327 326 325 325 325 325 325 324 321 322 322 322 322 322 322 322 317 319 322 324 326 325 324 325 324 323 323 323 323 321 321 321 321 321 322 324 323
327 326 327 328 329 329 329 327 327 327 328 328 326 326 325 325 325 325 325 324 321 323 322 322 322 322 323 320 317 321 324 324 325 327 326 324 323 324 325 324 323 321 321 320 321 321 321 323 323
322 324 325 327 328 328 328 327 327 326 326 327 326 326 325 325 325 325 325 323 322 322 323 323 323 324 322 316 317 322 326 326 326 328 327 326 325 324 324 326 324 322 322 321 321 322 320 322 323
318 317 318 319 322 324 326 324 325 326 326 326 325 325 325 325 325 324 324 322 323 322 323 323 324 324 321 315 319 324 327 327 325 326 326 326 326 326 324 325 325 322 323 323 321 322 321 322 322
317 317 319 319 321 322 322 323 324 326 326 326 325 325 324 324 324 324 324 323 322 323 323 324 324 323 317 315 322 325 326 327 327 325 325 325 326 326 324 325 324 323 323 323 322 321 322 323 321
315 316 316 317 319 320 322 323 323 325 325 325 325 325 324 324 324 324 324 323 322 323 324 324 324 321 315 319 323 326 325 325 326 326 326 325 326 325 325 324 323 322 323 322 322 321 323 323 322
316 316 317 318 320 319 321 322 323 324 324 324 325 325 325 324 325 324 323 323 323 324 324 325 323 318 317 323 326 325 325 326 327 327 326 326 325 326 324 324 322 322 323 321 321 321 323 324 323
316 318 319 320 321 321 321 322 322 323 323 324 325 324 324 325 325 324 322 322 324 324 325 324 322 316 321 325 326 324 323 326 327 327 325 325 325 326 325 322 322 323 323 320 321 322 324 325 324
319 318 319 320 321 321 320 321 321 322 322 325 327 327 324 324 326 325 322 323 324 324 325 324 321 316 324 325 323 323 323 326 327 326 326 325 324 324 322 323 324 324 322 321 321 323 325 324 324
321 319 319 319 321 320 320 321 321 322 324 326 327 328 328 328 326 326 323 324 324 325 325 324 319 319 324 327 327 326 325 328 328 326 326 325 324 322 324 324 324 323 322 322 322 324 324 324 325
317 317 318 319 320 322 321 323 322 322 323 323 325 326 327 325 325 325 324 324 325 325 325 323 319 322 324 326 327 326 327 328 326 325 324 325 325 324 323 323 323 323 321 322 323 324 324 324 324
317 318 319 319 320 321 323 322 321 321 323 322 320 324 325 325 325 325 325 325 325 325 325 323 321 322 325 327 327 326 325 325 324 326 326 325 324 324 323 323 323 323 323 321 323 324 323 323 323
317 317 318 318 319 322 322 322 322 322 323 322 323 323 324 324 325 325 325 325 326 326 325 323 321 323 327 326 327 324 324 325 326 326 327 327 326 325 324 324 323 324 324 321 322 324 322 323 325
315 313 316 319 321 324 322 322 324 322 322 322 322 323 324 325 325 325 325 326 326 326 325 323 321 324 326 327 326 324 324 325 324 326 327 326 325 326 325 324 323 323 323 321 321 323 324 323 324
314 315 319 322 323 324 322 324 324 322 322 324 324 325 325 325 325 325 325 326 326 327 325 323 323 326 325 327 325 324 324 324 325 325 327 326 326 326 326 324 323 323 324 322 323 323 323 324 325
314 317 317 319 321 322 322 322 323 323 325 324 324 325 325 325 325 325 326 326 327 326 324 322 326 327 327 327 325 327 327 327 326 325 326 327 327 326 326 325 323 323 325 325 325 325 324 326 326
313 314 317 315 321 325 323 324 325 324 326 325 325 324 325 325 325 326 326 326 327 326 324 323 327 327 327 327 325 327 328 326 325 324 325 325 326 326 326 326 325 324 324 324 324 325 325 325 325
313 314 313 315 317 321 322 323 321 322 325 325 323 325 326 326 326 326 326 327 327 326 323 323 327 327 327 326 326 327 328 325 326 325 326 325 326 326 326 326 325 325 324 324 324 324 324 324 322
316 315 314 317 318 318 320 322 321 320 323 324 324 325 326 327 327 326 326 327 327 325 323 323 326 326 325 326 326 327 328 325 327 326 325 326 326 326 325 325 325 326 325 325 324 325 324 322 323
Wind_Speed
5 5 2 0 2 3 4 6 3 8 2 5 4 4 5 3 4 4 11 15 15 20 20 19 15 10 8 7 7 8 9 10 12 12 12 12 12 12 11 13 13 12 11 10 9 10 12 15 17
5 4 0 2 3 1 5 4 4 8 5 3 6 8 1 1 5 6 17 11 12 11 13 15 12 10 9 10 10 9 11 12 13 14 13 12 12 12 13 14 15 14 13 12 11 10 11 14 16
6 5 1 2 2 5 4 4 5 18 20 9 2 1 2 3 6 4 8 13 13 10 7 8 12 12 10 9 9 12 13 12 12 12 13 15 14 16 16 15 15 17 16 15 14 13 12 13 15
6 3 1 2 8 6 4 9 17 7 17 12 11 3 4 8 4 7 10 14 12 9 9 10 13 13 10 8 9 11 12 13 13 11 16 17 19 18 18 17 16 18 17 17 17 18 17 14 15
7 2 1 3 6 5 6 16 17 5 3 3 12 6 4 13 11 11 14 13 9 10 11 12 11 9 8 9 9 11 12 14 11 11 13 15 18 20 20 21 20 20 20 19 20 19 19 18 16
4 2 1 4 5 4 8 21 9 8 6 5 4 10 6 11 19 15 17 13 11 9 11 13 11 9 9 10 13 14 15 16 13 10 10 11 12 18 21 22 22 21 21 21 22 21 21 21 18
5 3 4 4 9 7 6 7 5 8 3 9 8 8 6 18 20 19 18 15 11 14 12 13 13 11 11 14 15 15 15 16 12 11 11 9 10 10 14 19 22 23 23 23 23 23 24 22 21
6 4 3 5 4 10 7 4 12 15 12 7 14 4 7 18 24 24 19 16 14 15 14 13 14 14 14 16 14 15 17 14 11 13 13 13 13 11 14 14 16 19 22 23 24 26 27 26 23
8 2 5 6 5 9 6 3 23 17 13 6 15 19 17 11 28 26 23 22 18 19 17 17 18 17 15 15 14 17 15 15 14 13 14 14 14 14 13 13 14 14 14 15 17 22 24 24 25
8 5 9 10 6 7 17 4 21 12 20 15 13 16 18 18 33 31 29 27 23 23 23 23 21 19 17 15 15 14 11 13 14 15 14 13 13 13 12 11 10 12 13 16 18 19 21 21 24
9 11 22 13 20 17 16 28 24 15 10 24 18 19 17 25 35 32 30 27 22 22 26 26 24 21 18 14 12 8 8 9 12 13 14 13 16 15 12 10 10 10 13 14 19 18 17 22 22
5 17 26 28 31 17 13 23 22 29 31 42 30 17 23 29 35 33 32 29 26 29 29 28 25 23 16 11 8 8 9 10 10 10 14 17 18 13 13 12 12 13 11 13 14 19 17 20 22
7 13 25 27 28 31 30 21 24 31 42 41 28 21 26 31 33 32 30 29 28 31 31 31 27 20 13 9 7 8 10 10 10 11 13 16 16 15 14 14 13 12 13 13 15 15 17 18 20
9 13 20 20 26 31 23 24 20 27 34 40 26 25 28 34 34 34 35 35 33 32 30 30 24 16 10 8 9 9 10 11 11 12 13 14 17 17 18 18 14 13 14 13 14 15 16 18 19
18 15 16 13 21 14 29 18 22 33 32 36 27 28 32 37 37 37 35 39 35 33 30 28 20 12 8 8 8 10 10 10 10 11 13 14 16 18 18 16 14 13 14 14 13 14 15 17 19
5 4 7 9 17 21 12 20 19 35 32 35 32 30 35 39 40 39 41 38 36 32 30 23 16 9 7 8 8 10 11 10 10 10 12 13 16 18 16 15 13 12 14 14 14 16 15 18 18
3 14 17 20 14 6 6 18 12 25 24 27 34 31 36 42 39 44 41 40 35 33 29 21 13 8 7 6 7 9 8 8 10 12 12 13 14 16 17 15 13 13 13 13 14 17 14 19 19
13 8 7 16 3 9 15 16 17 27 23 25 31 36 35 40 37 39 42 39 35 32 24 17 11 7 5 4 5 6 8 10 11 12 12 14 13 12 14 13 11 12 11 9 16 15 14 17 18
10 6 10 17 2 8 7 11 11 18 18 20 28 28 33 34 22 20 32 34 36 30 23 16 9 7 5 2 3 7 10 10 9 11 11 14 13 9 12 10 10 12 9 10 16 15 13 17 18
10 11 16 19 6 6 8 14 14 13 11 21 28 29 27 27 21 20 28 37 38 29 20 13 8 6 4 2 5 8 12 10 10 8 10 13 7 4 7 6 9 10 10 14 16 16 17 18 17
18 18 16 20 3 7 7 13 13 17 7 22 30 29 22 29 26 23 33 40 34 26 18 10 7 5 4 2 5 10 12 11 10 6 10 6 1 4 5 6 6 9 12 15 17 18 18 19 17
19 14 17 18 4 8 4 5 5 9 12 7 16 17 25 22 21 25 38 38 31 21 13 8 7 4 3 2 5 11 13 10 5 6 6 5 2 4 5 5 5 8 11 16 16 15 15 18 18
17 12 9 13 8 5 8 3 7 4 8 10 9 17 11 15 22 31 40 35 26 18 12 8 6 4 4 1 7 12 10 4 5 5 5 4 3 4 6 6 7 7 10 15 16 15 13 16 20
8 2 2 11 3 10 18 7 5 7 9 7 5 8 12 19 25 31 35 28 23 16 12 9 6 5 4 1 7 9 5 5 8 7 5 5 3 5 7 7 7 7 10 15 18 16 13 15 16
13 6 4 3 5 6 8 5 14 7 9 9 9 10 18 22 27 33 34 30 24 19 15 10 7 6 4 1 6 4 5 7 9 7 6 3 1 4 5 9 8 8 10 13 16 16 16 15 14
14 14 6 5 3 5 7 7 7 10 11 19 14 16 22 26 28 34 35 29 23 18 16 10 9 6 4 1 4 3 5 6 8 9 6 2 3 3 6 10 10 10 11 13 14 14 15 15 14
16 15 13 2 3 2 4 6 8 1 3 3 12 22 26 29 32 35 33 28 22 18 16 10 10 6 4 1 2 3 5 6 8 8 6 4 4 4 6 11 12 12 11 12 13 15 15 14 13
9 10 7 5 6 5 4 3 6 5 7 5 7 14 25 28 30 33 32 28 21 17 15 11 9 6 4 2 2 3 4 6 8 6 7 5 4 5 7 9 12 13 12 13 13 14 13 14 15
8 11 5 7 5 5 1 6 7 9 9 12 10 22 29 31 32 34 33 27 20 19 17 13 13 11 7 3 2 2 4 6 8 5 5 8 8 6 6 8 11 14 14 14 14 13 13 14 15
19 17 9 11 9 5 3 7 5 11 14 14 17 24 29 31 32 34 32 28 24 23 20 15 15 13 6 3 3 2 4 6 8 6 5 7 8 8 7 8 9 12 14 14 13 13 13 16 13
Wind_Direction
149 134 135 9 53 63 263 257 277 309 260 241 173 179 200 108 160 217 161 173 174 184 186 193 202 216 233 241 264 283 285 279 274 274 265 258 258 254 258 280 282 285 283 277 272 256 253 244 239
158 152 285 120 109 126 261 258 262 241 256 227 121 115 16 157 166 159 155 179 168 175 192 201 209 215 226 239 259 277 288 287 281 278 268 259 263 244 261 267 271 277 276 273 263 262 256 249 241
175 167 307 106 164 201 225 248 258 295 306 174 110 305 246 230 197 215 195 181 174 194 203 213 211 222 237 256 285 299 299 294 285 278 267 263 260 257 273 266 266 269 267 268 269 260 256 257 248
171 164 129 113 241 265 237 278 286 282 291 226 168 165 226 178 205 219 192 179 178 202 222 215 218 227 238 252 290 307 310 311 302 272 264 262 267 273 271 266 263 259 257 257 254 263 268 256 253
165 162 112 237 245 250 251 268 293 264 238 189 164 197 230 218 219 215 189 185 199 214 224 219 224 238 246 263 298 309 306 311 297 278 269 270 269 273 268 265 262 259 259 254 253 251 253 258 250
150 117 46 253 229 232 283 285 288 288 288 177 218 156 207 221 212 205 194 200 203 223 222 220 221 238 254 265 289 301 305 307 300 288 277 280 283 269 266 265 262 259 257 256 254 251 249 251 250
143 107 221 243 279 297 241 293 277 312 248 226 202 153 219 226 214 210 200 203 212 217 228 219 220 229 235 258 274 286 294 298 291 290 295 295 299 290 273 267 264 259 259 254 250 249 248 246 245
191 124 260 240 237 277 221 264 295 311 292 302 203 202 241 233 194 195 199 205 213 222 225 222 220 226 242 259 274 284 295 283 265 267 280 287 296 294 297 276 267 262 254 252 249 248 246 245 243
192 108 254 239 195 251 233 346 299 311 284 274 207 238 257 219 189 194 199 204 214 219 219 220 227 232 246 254 268 294 287 274 265 265 277 282 293 293 291 285 274 263 258 257 256 245 241 241 239
175 155 237 219 195 253 294 267 291 303 297 293 275 261 255 204 195 198 207 211 218 218 220 225 227 234 241 247 283 292 276 264 267 271 271 279 295 301 295 294 278 270 266 250 249 254 242 238 233
191 211 231 264 253 259 285 294 296 278 279 277 268 267 225 199 199 207 216 221 229 226 226 229 228 227 233 259 292 307 313 307 288 280 278 285 287 292 287 298 284 278 266 267 247 246 244 234 231
223 232 241 250 260 269 263 283 289 289 280 288 279 271 224 205 206 212 216 219 223 223 229 226 222 225 237 265 301 307 311 314 307 294 279 280 288 275 274 279 292 272 270 267 257 248 244 231 228
191 245 247 263 278 278 278 269 269 281 288 291 274 247 225 219 220 221 224 222 226 224 228 228 219 225 242 267 304 302 313 310 299 295 290 275 272 270 271 270 285 278 267 270 256 245 232 227 222
251 256 268 266 263 273 275 273 277 276 285 289 265 247 233 224 226 222 220 223 226 226 223 212 211 222 248 284 301 312 317 312 298 291 288 274 268 266 266 271 271 277 272 274 256 237 229 224 214
278 284 280 260 266 261 267 272 265 275 282 286 273 253 232 227 227 226 228 221 227 222 210 207 210 225 258 291 303 317 318 316 310 294 291 278 272 268 267 261 264 272 270 264 248 229 222 215 205
337 292 271 270 253 257 235 271 274 283 282 275 275 254 230 231 230 234 231 224 222 212 207 202 207 230 266 288 296 312 314 306 305 311 311 298 277 270 263 258 265 270 270 262 250 222 216 199 201
255 260 264 278 251 260 201 274 276 279 277 274 279 267 238 237 233 233 233 227 220 210 203 201 211 237 265 276 294 312 312 308 309 307 314 317 291 269 259 260 260 260 272 268 233 204 204 200 201
218 230 259 255 140 226 252 261 272 277 261 262 275 278 248 236 242 240 235 224 212 207 200 204 212 238 250 269 302 312 323 315 307 311 314 318 305 267 251 251 250 249 264 245 190 193 197 201 201
236 222 246 260 193 233 245 263 272 278 294 269 274 270 261 246 258 252 232 216 201 197 195 201 217 230 228 266 299 323 332 324 312 309 317 325 314 262 238 237 239 243 244 207 185 186 188 184 185
241 247 253 283 272 245 271 269 276 278 266 260 269 272 263 259 261 228 213 197 195 187 191 202 216 219 204 267 324 338 339 330 319 306 311 324 323 210 203 217 236 230 209 189 186 187 178 177 184
222 230 246 250 333 265 285 283 284 283 266 271 260 256 258 262 240 210 194 188 181 188 190 203 209 201 198 270 338 345 339 326 321 309 315 337 327 172 195 204 210 202 194 189 186 190 190 183 186
224 215 242 259 276 264 129 284 295 285 303 287 258 242 247 251 221 199 186 180 185 181 185 190 194 192 194 286 340 343 338 329 345 329 344 4 230 202 205 192 202 192 193 193 191 192 195 200 202
230 224 226 247 234 258 248 270 264 233 284 281 265 247 239 220 200 189 182 182 176 181 184 177 180 187 203 293 347 343 344 359 1 344 340 330 281 199 177 198 194 201 197 191 191 191 197 197 198
206 248 261 252 239 254 263 187 226 235 224 258 246 246 197 185 183 185 180 175 173 176 176 172 175 180 195 334 346 354 28 27 5 343 339 315 274 215 190 194 190 194 187 190 194 192 195 194 197
202 130 254 276 219 229 237 189 245 247 233 224 260 198 179 182 180 182 179 177 177 177 178 174 174 183 179 52 350 21 13 21 8 6 352 348 157 174 194 193 186 179 168 175 184 192 193 190 201
212 182 172 200 209 193 183 230 247 214 232 240 257 207 178 182 183 182 181 179 181 180 180 175 169 162 156 94 358 22 6 14 5 6 11 25 95 133 173 185 180 168 161 165 175 176 183 192 200
201 206 181 30 291 132 220 280 323 32 261 158 149 165 179 185 182 182 181 183 184 183 182 179 169 163 156 153 35 360 349 8 8 15 37 71 108 122 147 174 171 163 157 162 170 171 181 189 197
173 161 174 200 204 219 267 219 220 212 223 165 155 175 180 183 183 183 184 184 185 183 182 178 177 173 154 158 99 33 30 19 26 36 50 74 107 108 129 158 176 175 167 165 165 169 178 195 197
176 179 177 156 199 174 207 254 209 206 184 187 197 190 180 186 186 185 185 184 184 184 185 183 186 190 182 171 138 68 43 40 38 62 78 80 94 102 122 139 166 174 173 171 171 173 181 187 187
204 199 188 194 194 240 163 260 238 198 195 185 192 190 190 193 187 186 185 184 187 188 188 188 186 188 184 173 171 135 73 64 41 73 102 91 96 102 122 144 152 167 172 170 176 176 176 173 180